TimeCST,TemperatureF,Dew PointF,Humidity,Sea Level PressureIn,VisibilityMPH,Wind Direction,Wind SpeedMPH,Gust SpeedMPH,PrecipitationIn,Events,Conditions,WindDirDegrees,DateUTC
12:15 AM,35.6,24.8,65,30.39,10.0,SSW,9.2,-,N/A,,Clear,200,2013-01-18 06:15:00
12:35 AM,35.6,24.8,65,30.39,10.0,SSW,10.4,-,N/A,,Clear,200,2013-01-18 06:35:00
12:55 AM,35.6,26.6,70,30.39,10.0,SSW,12.7,-,N/A,,Clear,210,2013-01-18 06:55:00
1:15 AM,37.4,26.6,65,30.39,10.0,SSW,15.0,-,N/A,,Clear,200,2013-01-18 07:15:00
1:35 AM,37.4,24.8,60,30.39,10.0,SSW,13.8,-,N/A,,Clear,200,2013-01-18 07:35:00
1:55 AM,35.6,24.8,65,30.39,10.0,SSW,12.7,-,N/A,,Clear,200,2013-01-18 07:55:00
2:15 AM,35.6,24.8,65,30.39,10.0,SSW,13.8,-,N/A,,Clear,200,2013-01-18 08:15:00
2:35 AM,35.6,24.8,65,30.38,10.0,SSW,15.0,-,N/A,,Clear,200,2013-01-18 08:35:00
2:55 AM,35.6,24.8,65,30.38,10.0,SSW,15.0,-,N/A,,Clear,200,2013-01-18 08:55:00
3:15 AM,35.6,26.6,70,30.37,10.0,SSW,16.1,-,N/A,,Clear,200,2013-01-18 09:15:00
3:35 AM,37.4,26.6,65,30.36,10.0,SSW,17.3,-,N/A,,Clear,200,2013-01-18 09:35:00
3:55 AM,37.4,26.6,65,30.35,10.0,SSW,16.1,21.9,N/A,,Clear,200,2013-01-18 09:55:00
4:15 AM,37.4,24.8,60,30.34,10.0,SSW,17.3,-,N/A,,Clear,200,2013-01-18 10:15:00
4:35 AM,35.6,24.8,65,30.33,10.0,SSW,18.4,-,N/A,,Clear,200,2013-01-18 10:35:00
4:55 AM,35.6,24.8,65,30.32,10.0,SSW,17.3,-,N/A,,Clear,200,2013-01-18 10:55:00
5:15 AM,35.6,24.8,65,30.31,10.0,SSW,17.3,20.7,N/A,,Clear,200,2013-01-18 11:15:00
5:35 AM,35.6,24.8,65,30.31,10.0,SSW,18.4,-,N/A,,Clear,200,2013-01-18 11:35:00
5:55 AM,35.6,26.6,70,30.30,10.0,SSW,16.1,-,N/A,,Clear,200,2013-01-18 11:55:00
6:15 AM,35.6,24.8,65,30.30,10.0,SSW,18.4,24.2,N/A,,Clear,200,2013-01-18 12:15:00
6:35 AM,35.6,26.6,70,30.29,10.0,SSW,17.3,25.3,N/A,,Clear,200,2013-01-18 12:35:00
6:55 AM,35.6,26.6,70,30.29,10.0,SSW,19.6,23.0,N/A,,Clear,200,2013-01-18 12:55:00
7:15 AM,35.6,24.8,65,30.28,10.0,SSW,18.4,-,N/A,,Clear,200,2013-01-18 13:15:00
7:35 AM,35.6,26.6,70,30.28,10.0,South,17.3,-,N/A,,Clear,190,2013-01-18 13:35:00
7:55 AM,35.6,24.8,65,30.29,10.0,SSW,17.3,-,N/A,,Clear,200,2013-01-18 13:55:00
8:15 AM,35.6,26.6,70,30.28,10.0,SSW,19.6,25.3,N/A,,Clear,200,2013-01-18 14:15:00
8:35 AM,35.6,26.6,70,30.28,10.0,SSW,17.3,-,N/A,,Clear,200,2013-01-18 14:35:00
8:55 AM,37.4,26.6,65,30.28,10.0,SSW,18.4,26.5,N/A,,Clear,200,2013-01-18 14:55:00
9:15 AM,39.2,26.6,61,30.29,10.0,SSW,21.9,-,N/A,,Clear,210,2013-01-18 15:15:00
9:35 AM,39.2,26.6,61,30.29,10.0,SSW,20.7,27.6,N/A,,Clear,210,2013-01-18 15:35:00
9:55 AM,42.8,26.6,53,30.28,10.0,SSW,23.0,28.8,N/A,,Clear,210,2013-01-18 15:55:00
10:15 AM,42.8,28.4,57,30.28,10.0,SSW,25.3,31.1,N/A,,Clear,210,2013-01-18 16:15:00
10:35 AM,44.6,28.4,53,30.27,10.0,SSW,24.2,32.2,N/A,,Clear,210,2013-01-18 16:35:00
10:55 AM,46.4,28.4,50,30.26,10.0,SSW,25.3,35.7,N/A,,Clear,210,2013-01-18 16:55:00
11:15 AM,48.2,28.4,46,30.25,10.0,SSW,25.3,35.7,N/A,,Clear,210,2013-01-18 17:15:00
11:35 AM,48.2,28.4,46,30.23,10.0,SSW,26.5,35.7,N/A,,Clear,210,2013-01-18 17:35:00
4:35 PM,55.4,28.4,36,30.09,10.0,SSW,24.2,32.2,N/A,,Clear,210,2013-01-18 22:35:00
4:55 PM,55.4,28.4,36,30.09,10.0,SSW,23.0,31.1,N/A,,Clear,210,2013-01-18 22:55:00
5:15 PM,53.6,28.4,38,30.09,10.0,SSW,18.4,27.6,N/A,,Clear,200,2013-01-18 23:15:00
5:35 PM,51.8,28.4,41,30.10,10.0,SSW,16.1,-,N/A,,Clear,200,2013-01-18 23:35:00
5:55 PM,51.8,28.4,41,30.10,10.0,SSW,15.0,-,N/A,,Clear,200,2013-01-18 23:55:00
6:15 PM,48.2,28.4,46,30.09,10.0,SSW,15.0,-,N/A,,Clear,200,2013-01-19 00:15:00
6:35 PM,50.0,28.4,43,30.10,10.0,SSW,17.3,-,N/A,,Clear,200,2013-01-19 00:35:00
6:55 PM,48.2,28.4,46,30.10,10.0,SSW,18.4,-,N/A,,Clear,200,2013-01-19 00:55:00
7:15 PM,48.2,28.4,46,30.09,10.0,SSW,18.4,24.2,N/A,,Clear,200,2013-01-19 01:15:00
7:35 PM,48.2,28.4,46,30.09,10.0,SSW,20.7,24.2,N/A,,Clear,200,2013-01-19 01:35:00
7:55 PM,48.2,28.4,46,30.09,10.0,SSW,21.9,26.5,N/A,,Clear,200,2013-01-19 01:55:00
8:35 PM,46.4,28.4,50,30.07,10.0,SSW,23.0,-,N/A,,Clear,200,2013-01-19 02:35:00
8:55 PM,46.4,28.4,50,30.07,10.0,SSW,24.2,29.9,N/A,,Clear,200,2013-01-19 02:55:00
9:15 PM,46.4,28.4,50,30.07,10.0,SSW,21.9,28.8,N/A,,Clear,200,2013-01-19 03:15:00
9:35 PM,46.4,28.4,50,30.07,10.0,SSW,21.9,28.8,N/A,,Clear,200,2013-01-19 03:35:00
9:55 PM,46.4,28.4,50,30.07,10.0,SSW,19.6,25.3,N/A,,Clear,200,2013-01-19 03:55:00
10:15 PM,46.4,28.4,50,30.07,10.0,SSW,18.4,-,N/A,,Clear,200,2013-01-19 04:15:00
10:35 PM,46.4,28.4,50,30.06,10.0,SSW,18.4,25.3,N/A,,Clear,210,2013-01-19 04:35:00
10:55 PM,46.4,28.4,50,30.06,10.0,SSW,19.6,24.2,N/A,,Clear,210,2013-01-19 04:55:00
11:15 PM,44.6,28.4,53,30.06,10.0,SSW,17.3,24.2,N/A,,Clear,210,2013-01-19 05:15:00
11:35 PM,44.6,28.4,53,30.06,10.0,SSW,17.3,-,N/A,,Clear,210,2013-01-19 05:35:00
11:55 PM,42.8,28.4,57,30.05,10.0,SSW,16.1,-,N/A,,Clear,210,2013-01-19 05:55:00